Time,TemperatureF,DewpointF,PressureIn,WindDirection,WindDirectionDegrees,WindSpeedMPH,WindSpeedGustMPH,Humidity,HourlyPrecipIn,Conditions,Clouds,dailyrainin,SolarRadiationWatts/m^2,SoftwareType,DateUTC
2013-07-11 00:13:00,73.1,72.0,29.98,SW,219,0.0,0.0,96,0.00,,,0.00,0,weatherlink.com 1.10,2013-07-11 04:13:00,
2013-07-11 00:28:00,73.0,72.0,29.98,SW,219,0.0,0.0,96,0.00,,,0.00,0,weatherlink.com 1.10,2013-07-11 04:28:00,
2013-07-11 00:43:00,72.8,72.0,29.97,SW,219,0.0,1.0,96,0.00,,,0.00,0,weatherlink.com 1.10,2013-07-11 04:43:00,
2013-07-11 00:58:00,72.7,72.0,29.98,SW,219,0.0,1.0,96,0.00,,,0.00,0,weatherlink.com 1.10,2013-07-11 04:58:00,
2013-07-11 01:13:00,72.7,72.0,29.98,SW,219,0.0,0.0,96,0.00,,,0.00,0,weatherlink.com 1.10,2013-07-11 05:13:00,
2013-07-11 01:28:00,72.7,72.0,29.97,SW,219,0.0,1.0,96,0.00,,,0.00,0,weatherlink.com 1.10,2013-07-11 05:28:00,
2013-07-11 01:43:00,72.6,71.0,29.98,SW,219,0.0,1.0,96,0.00,,,0.00,0,weatherlink.com 1.10,2013-07-11 05:43:00,
2013-07-11 01:58:00,72.7,72.0,29.97,SW,219,0.0,1.0,96,0.00,,,0.00,0,weatherlink.com 1.10,2013-07-11 05:58:00,
2013-07-11 02:13:00,73.0,72.0,29.97,SW,219,0.0,1.0,96,0.00,,,0.00,0,weatherlink.com 1.10,2013-07-11 06:13:00,
2013-07-11 02:28:00,73.2,72.0,29.97,SW,219,0.0,1.0,96,0.00,,,0.00,0,weatherlink.com 1.10,2013-07-11 06:28:00,
2013-07-11 02:43:00,73.2,72.0,29.97,SW,217,0.0,0.0,96,0.00,,,0.00,0,weatherlink.com 1.10,2013-07-11 06:43:00,
2013-07-11 02:58:00,73.2,72.0,29.98,SW,221,0.0,1.0,97,0.00,,,0.00,0,weatherlink.com 1.10,2013-07-11 06:58:00,
2013-07-11 03:13:00,73.4,73.0,29.98,WSW,239,0.0,1.0,97,0.00,,,0.00,0,weatherlink.com 1.10,2013-07-11 07:13:00,
2013-07-11 03:28:00,73.5,72.0,29.98,WSW,242,0.0,1.0,96,0.00,,,0.00,0,weatherlink.com 1.10,2013-07-11 07:28:00,
2013-07-11 03:43:00,73.5,72.0,29.98,WSW,243,1.0,2.0,96,0.00,,,0.00,0,weatherlink.com 1.10,2013-07-11 07:43:00,
2013-07-11 03:58:00,73.4,72.0,29.97,SW,236,0.0,2.0,96,0.00,,,0.00,0,weatherlink.com 1.10,2013-07-11 07:58:00,
2013-07-11 04:13:00,73.3,72.0,29.97,WSW,244,0.0,1.0,97,0.00,,,0.00,0,weatherlink.com 1.10,2013-07-11 08:13:00,
2013-07-11 04:28:00,73.2,72.0,29.97,WSW,242,0.0,3.0,97,0.00,,,0.00,0,weatherlink.com 1.10,2013-07-11 08:28:00,
2013-07-11 04:43:00,73.1,72.0,29.96,WSW,252,0.0,4.0,97,0.00,,,0.00,0,weatherlink.com 1.10,2013-07-11 08:43:00,
2013-07-11 04:58:00,72.9,72.0,29.96,WSW,241,0.0,3.0,97,0.00,,,0.00,0,weatherlink.com 1.10,2013-07-11 08:58:00,
2013-07-11 05:13:00,72.8,72.0,29.96,SW,227,0.0,5.0,97,0.00,,,0.00,0,weatherlink.com 1.10,2013-07-11 09:13:00,
2013-07-11 05:28:00,72.8,72.0,29.97,West,272,0.0,1.0,97,0.00,,,0.00,0,weatherlink.com 1.10,2013-07-11 09:28:00,
2013-07-11 05:43:00,72.8,72.0,29.97,SW,227,0.0,4.0,97,0.00,,,0.00,0,weatherlink.com 1.10,2013-07-11 09:43:00,
2013-07-11 05:58:00,72.7,72.0,29.97,NNW,331,0.0,1.0,97,0.00,,,0.00,0,weatherlink.com 1.10,2013-07-11 09:58:00,
2013-07-11 06:13:00,72.7,72.0,29.97,WSW,249,0.0,3.0,97,0.00,,,0.00,0,weatherlink.com 1.10,2013-07-11 10:13:00,
2013-07-11 06:28:00,72.7,72.0,29.97,SSW,200,0.0,1.0,97,0.00,,,0.00,0,weatherlink.com 1.10,2013-07-11 10:28:00,
2013-07-11 06:43:00,72.7,72.0,29.97,WSW,237,0.0,2.0,97,0.00,,,0.00,14,weatherlink.com 1.10,2013-07-11 10:43:00,
2013-07-11 06:58:00,72.7,72.0,29.97,SW,229,0.0,1.0,97,0.00,,,0.00,33,weatherlink.com 1.10,2013-07-11 10:58:00,
2013-07-11 07:13:00,72.8,72.0,29.98,West,265,0.0,2.0,97,0.00,,,0.00,26,weatherlink.com 1.10,2013-07-11 11:13:00,
2013-07-11 07:28:00,72.9,72.0,29.98,SSE,167,0.0,1.0,97,0.00,,,0.00,40,weatherlink.com 1.10,2013-07-11 11:28:00,
2013-07-11 07:43:00,73.1,72.0,29.99,SW,227,0.0,1.0,97,0.00,,,0.00,56,weatherlink.com 1.10,2013-07-11 11:43:00,
2013-07-11 07:58:00,73.3,72.0,29.98,NW,309,0.0,1.0,97,0.00,,,0.00,105,weatherlink.com 1.10,2013-07-11 11:58:00,
2013-07-11 08:13:00,73.7,73.0,29.98,WSW,246,0.0,3.0,97,0.00,,,0.00,100,weatherlink.com 1.10,2013-07-11 12:13:00,
2013-07-11 08:28:00,74.0,73.0,29.98,SW,234,0.0,1.0,96,0.00,,,0.00,151,weatherlink.com 1.10,2013-07-11 12:28:00,
2013-07-11 08:43:00,74.9,73.0,29.98,WSW,240,0.0,1.0,95,0.00,,,0.00,392,weatherlink.com 1.10,2013-07-11 12:43:00,
2013-07-11 08:58:00,76.0,74.0,29.98,WSW,246,3.0,3.0,92,0.00,,,0.00,441,weatherlink.com 1.10,2013-07-11 12:58:00,
2013-07-11 09:13:00,77.0,75.0,29.98,WSW,246,0.0,1.0,92,0.00,,,0.00,332,weatherlink.com 1.10,2013-07-11 13:13:00,
2013-07-11 09:28:00,77.8,75.0,29.98,SW,236,3.0,4.0,90,0.00,,,0.00,540,weatherlink.com 1.10,2013-07-11 13:28:00,
2013-07-11 09:43:00,78.2,75.0,29.98,SW,234,0.0,4.0,89,0.00,,,0.00,541,weatherlink.com 1.10,2013-07-11 13:43:00,
2013-07-11 09:58:00,78.1,75.0,29.98,WSW,252,0.0,3.0,89,0.00,,,0.00,345,weatherlink.com 1.10,2013-07-11 13:58:00,
2013-07-11 10:13:00,79.4,76.0,29.98,WNW,300,0.0,2.0,88,0.00,,,0.00,703,weatherlink.com 1.10,2013-07-11 14:13:00,
2013-07-11 10:43:00,80.2,76.0,29.97,WSW,238,0.0,2.0,87,0.00,,,0.00,784,weatherlink.com 1.10,2013-07-11 14:43:00,
2013-07-11 10:59:00,80.5,75.0,29.97,West,264,0.0,1.0,84,0.00,,,0.00,239,weatherlink.com 1.10,2013-07-11 14:59:00,
2013-07-11 11:14:00,82.4,77.0,29.96,WSW,244,0.0,5.0,83,0.00,,,0.00,847,weatherlink.com 1.10,2013-07-11 15:14:00,
2013-07-11 11:29:00,82.2,76.0,29.96,WSW,256,0.0,6.0,80,0.00,,,0.00,893,weatherlink.com 1.10,2013-07-11 15:29:00,
2013-07-11 11:44:00,82.1,77.0,29.96,West,260,0.0,1.0,83,0.00,,,0.00,373,weatherlink.com 1.10,2013-07-11 15:44:00,
2013-07-11 11:59:00,84.0,77.0,29.96,WSW,248,0.0,1.0,78,0.00,,,0.00,341,weatherlink.com 1.10,2013-07-11 15:59:00,
2013-07-11 12:14:00,84.1,76.0,29.96,SW,221,0.0,1.0,76,0.00,,,0.00,888,weatherlink.com 1.10,2013-07-11 16:14:00,
2013-07-11 12:29:00,85.0,77.0,29.96,WSW,252,0.0,4.0,78,0.00,,,0.00,998,weatherlink.com 1.10,2013-07-11 16:29:00,
2013-07-11 12:44:00,84.2,76.0,29.95,WSW,240,0.0,3.0,76,0.00,,,0.00,1004,weatherlink.com 1.10,2013-07-11 16:44:00,
2013-07-11 12:59:00,86.1,78.0,29.95,ENE,76,0.0,2.0,76,0.00,,,0.00,983,weatherlink.com 1.10,2013-07-11 16:59:00,
2013-07-11 13:14:00,86.4,78.0,29.94,SW,236,0.0,6.0,75,0.00,,,0.00,969,weatherlink.com 1.10,2013-07-11 17:14:00,
2013-07-11 13:59:00,86.6,77.0,29.93,WNW,298,0.0,4.0,73,0.00,,,0.00,1051,weatherlink.com 1.10,2013-07-11 17:59:00,
2013-07-11 14:14:00,86.0,76.0,29.93,SW,225,0.0,9.0,72,0.00,,,0.00,125,weatherlink.com 1.10,2013-07-11 18:14:00,
2013-07-11 14:29:00,86.8,76.0,29.92,NW,316,0.0,3.0,70,0.00,,,0.00,773,weatherlink.com 1.10,2013-07-11 18:29:00,
2013-07-11 14:59:00,86.8,76.0,29.91,WSW,251,1.0,7.0,71,0.00,,,0.00,1020,weatherlink.com 1.10,2013-07-11 18:59:00,
2013-07-11 15:14:00,85.6,76.0,29.90,SW,232,0.0,7.0,73,0.00,,,0.00,868,weatherlink.com 1.10,2013-07-11 19:14:00,
2013-07-11 15:44:00,87.1,76.0,29.89,SW,234,1.0,3.0,70,0.00,,,0.00,823,weatherlink.com 1.10,2013-07-11 19:44:00,
2013-07-11 15:59:00,87.7,76.0,29.88,SW,233,0.0,5.0,69,0.00,,,0.00,809,weatherlink.com 1.10,2013-07-11 19:59:00,
2013-07-11 16:14:00,87.4,77.0,29.87,SW,230,0.0,4.0,72,0.00,,,0.00,775,weatherlink.com 1.10,2013-07-11 20:14:00,
2013-07-11 16:29:00,88.2,77.0,29.87,SW,229,0.0,1.0,70,0.00,,,0.00,798,weatherlink.com 1.10,2013-07-11 20:29:00,
2013-07-11 16:44:00,87.7,76.0,29.87,SSW,211,0.0,1.0,69,0.00,,,0.00,863,weatherlink.com 1.10,2013-07-11 20:44:00,
2013-07-11 16:59:00,86.0,77.0,29.87,SW,221,0.0,1.0,74,0.00,,,0.00,209,weatherlink.com 1.10,2013-07-11 20:59:00,
2013-07-11 17:14:00,84.8,76.0,29.86,West,265,0.0,0.0,75,0.00,,,0.00,171,weatherlink.com 1.10,2013-07-11 21:14:00,
2013-07-11 17:29:00,84.1,76.0,29.87,WNW,299,0.0,1.0,76,0.00,,,0.00,47,weatherlink.com 1.10,2013-07-11 21:29:00,
2013-07-11 17:44:00,81.6,76.0,29.88,NNE,29,1.0,10.0,83,0.00,,,0.00,63,weatherlink.com 1.10,2013-07-11 21:44:00,
2013-07-11 17:59:00,79.3,74.0,29.88,NNE,24,4.0,7.0,84,0.00,,,0.00,16,weatherlink.com 1.10,2013-07-11 21:59:00,
2013-07-11 18:14:00,78.0,74.0,29.88,NE,34,0.0,11.0,86,0.00,,,0.00,30,weatherlink.com 1.10,2013-07-11 22:14:00,
2013-07-11 18:29:00,75.8,73.0,29.88,NE,37,0.0,8.0,90,0.00,,,0.00,16,weatherlink.com 1.10,2013-07-11 22:29:00,
2013-07-11 18:44:00,75.3,73.0,29.88,NNE,22,0.0,3.0,92,0.01,,,0.01,12,weatherlink.com 1.10,2013-07-11 22:44:00,
2013-07-11 18:59:00,74.1,73.0,29.89,NNE,13,0.0,1.0,95,0.11,,,0.11,9,weatherlink.com 1.10,2013-07-11 22:59:00,
2013-07-11 19:14:00,73.5,72.0,29.89,NNE,15,0.0,1.0,96,0.11,,,0.11,9,weatherlink.com 1.10,2013-07-11 23:14:00,
2013-07-11 19:29:00,73.3,72.0,29.89,NE,39,0.0,0.0,96,0.12,,,0.12,18,weatherlink.com 1.10,2013-07-11 23:29:00,
2013-07-11 19:44:00,73.2,72.0,29.89,NE,39,0.0,0.0,97,0.12,,,0.13,54,weatherlink.com 1.10,2013-07-11 23:44:00,
2013-07-11 20:14:00,73.5,73.0,29.87,SW,232,0.0,1.0,97,0.03,,,0.14,12,weatherlink.com 1.10,2013-07-12 00:14:00,
2013-07-11 20:29:00,73.3,73.0,29.87,SSW,194,0.0,0.0,98,0.02,,,0.14,5,weatherlink.com 1.10,2013-07-12 00:29:00,
2013-07-11 20:59:00,73.3,73.0,29.87,SSW,194,0.0,0.0,98,0.00,,,0.14,0,weatherlink.com 1.10,2013-07-12 00:59:00,
2013-07-11 21:14:00,73.3,73.0,29.88,SSW,194,0.0,0.0,98,0.00,,,0.14,0,weatherlink.com 1.10,2013-07-12 01:14:00,
2013-07-11 21:29:00,73.4,73.0,29.89,SSW,194,0.0,0.0,98,0.00,,,0.14,0,weatherlink.com 1.10,2013-07-12 01:29:00,
2013-07-11 21:44:00,73.4,73.0,29.90,SSW,194,0.0,1.0,98,0.00,,,0.14,0,weatherlink.com 1.10,2013-07-12 01:44:00,
2013-07-11 22:14:00,73.4,73.0,29.89,SE,124,0.0,0.0,98,0.00,,,0.14,0,weatherlink.com 1.10,2013-07-12 02:14:00,
2013-07-11 22:30:00,73.5,73.0,29.90,SE,124,0.0,0.0,98,0.00,,,0.14,0,weatherlink.com 1.10,2013-07-12 02:30:00,
2013-07-11 23:15:00,73.6,73.0,29.91,South,190,0.0,1.0,98,0.00,,,0.14,0,weatherlink.com 1.10,2013-07-12 03:15:00,
2013-07-11 23:30:00,73.5,73.0,29.91,SSE,147,0.0,1.0,98,0.00,,,0.14,0,weatherlink.com 1.10,2013-07-12 03:30:00,
2013-07-11 23:45:00,73.4,73.0,29.91,SSW,192,0.0,4.0,98,0.00,,,0.14,0,weatherlink.com 1.10,2013-07-12 03:45:00,